| time (UTC) | temp F | wind direction | speed knots | gust knots | rain 1hr in | rain 24hr in | rain mn in | humidity % | barometer mb |
| 20260507113053 | 52 | 60 | 10.4 | 16.5 | 0.00 | 0.00 | 0.00 | 72 | 1019.9 |
| 20260507111552 | 52 | 65 | 12.2 | 17.4 | 0.00 | 0.00 | 0.00 | 71 | 1019.7 |
| 20260507110056 | 53 | 73 | 13.9 | 20.9 | 0.00 | 0.00 | 0.00 | 70 | 1019.7 |
| 20260507104557 | 53 | 61 | 13.0 | 17.4 | 0.00 | 0.00 | 0.00 | 69 | 1019.9 |
| 20260507103100 | 53 | 54 | 12.2 | 15.6 | 0.00 | 0.00 | 0.00 | 68 | 1020.2 |
| 20260507101556 | 54 | 63 | 12.2 | 19.1 | 0.00 | 0.00 | 0.00 | 67 | 1019.7 |
| 20260507100052 | 54 | 65 | 13.9 | 17.4 | 0.00 | 0.00 | 0.00 | 66 | 1019.7 |
| 20260507094554 | 55 | 61 | 10.4 | 15.6 | 0.00 | 0.00 | 0.00 | 64 | 1019.8 |
| 20260507093102 | 55 | 59 | 12.2 | 20.0 | 0.00 | 0.00 | 0.00 | 63 | 1019.8 |
| 20260507091600 | 56 | 62 | 12.2 | 20.0 | 0.00 | 0.00 | 0.00 | 62 | 1019.4 |
| 20260507090056 | 57 | 63 | 14.8 | 20.9 | 0.00 | 0.00 | 0.00 | 61 | 1019.3 |
| 20260507084601 | 58 | 61 | 13.0 | 17.4 | 0.00 | 0.00 | 0.00 | 61 | 1019.2 |
| 20260507083056 | 58 | 59 | 13.0 | 19.1 | 0.00 | 0.00 | 0.00 | 62 | 1018.9 |
| 20260507081559 | 58 | 69 | 12.2 | 17.4 | 0.00 | 0.00 | 0.00 | 63 | 1018.6 |
| 20260507080053 | 58 | 69 | 11.3 | 15.6 | 0.00 | 0.00 | 0.00 | 61 | 1018.8 |
| 20260507074556 | 58 | 81 | 10.4 | 13.9 | 0.00 | 0.00 | 0.00 | 59 | 1018.6 |
| 20260507073057 | 59 | 67 | 9.6 | 12.2 | 0.00 | 0.00 | 0.00 | 61 | 1018.4 |
| 20260507071557 | 59 | 80 | 10.4 | 14.8 | 0.00 | 0.00 | 0.00 | 60 | 1018.3 |
| 20260507063058 | 61 | 81 | 7.8 | 10.4 | 0.00 | 0.00 | 0.00 | 60 | 1017.8 |
| 20260507061604 | 61 | 81 | 6.1 | 8.7 | 0.00 | 0.00 | 0.00 | 57 | 1017.6 |
| 20260507054604 | 62 | 96 | 7.0 | 11.3 | 0.00 | 0.00 | 0.00 | 60 | 1017.3 |
| 20260507053059 | 63 | 106 | 9.6 | 13.0 | 0.00 | 0.00 | 0.00 | 60 | 1016.9 |
| 20260507051601 | 63 | 118 | 9.6 | 11.3 | 0.00 | 0.00 | 0.00 | 55 | 1016.8 |
| 20260507050058 | 64 | 97 | 8.7 | 10.4 | 0.00 | 0.00 | 0.00 | 51 | 1017.0 |
| 20260507044607 | 64 | 91 | 7.8 | 13.9 | 0.00 | 0.00 | 0.00 | 48 | 1017.1 |
| 20260507043057 | 65 | 84 | 9.6 | 13.9 | 0.00 | 0.00 | 0.00 | 48 | 1016.6 |
| 20260507041600 | 65 | 94 | 10.4 | 13.9 | 0.00 | 0.00 | 0.00 | 47 | 1016.3 |
| 20260507040055 | 66 | 107 | 10.4 | 14.8 | 0.00 | 0.00 | 0.00 | 46 | 1015.9 |
| 20260507034613 | 67 | 106 | 10.4 | 15.6 | 0.00 | 0.00 | 0.00 | 45 | 1015.4 |
| 20260507033055 | 67 | 111 | 13.0 | 16.5 | 0.00 | 0.00 | 0.00 | 44 | 1015.4 |
| 20260507031558 | 68 | 97 | 12.2 | 17.4 | 0.00 | 0.00 | 0.00 | 43 | 1015.2 |
| 20260507030101 | 68 | 110 | 13.9 | 20.0 | 0.00 | 0.00 | 0.00 | 42 | 1014.8 |
| 20260507024600 | 70 | 94 | 11.3 | 19.1 | 0.00 | 0.00 | 0.00 | 40 | 1014.5 |
| 20260507023100 | 72 | 101 | 11.3 | 13.9 | 0.00 | 0.00 | 0.00 | 36 | 1014.0 |
| 20260507021556 | 73 | 113 | 10.4 | 13.9 | 0.00 | 0.00 | 0.00 | 34 | 1013.7 |
| 20260507020059 | 73 | 113 | 9.6 | 12.2 | 0.00 | 0.00 | 0.00 | 33 | 1013.7 |
| 20260507014554 | 74 | 121 | 7.8 | 13.0 | 0.00 | 0.00 | 0.00 | 32 | 1013.7 |
| 20260507013100 | 75 | 128 | 9.6 | 14.8 | 0.00 | 0.00 | 0.00 | 30 | 1013.6 |
| 20260507011557 | 76 | 140 | 9.6 | 13.9 | 0.00 | 0.00 | 0.00 | 28 | 1013.4 |
| 20260507010056 | 77 | 136 | 10.4 | 14.8 | 0.00 | 0.00 | 0.00 | 27 | 1013.4 |
| 20260507004601 | 77 | 163 | 6.1 | 10.4 | 0.00 | 0.00 | 0.00 | 26 | 1013.2 |
| 20260507003101 | 77 | 169 | 5.2 | 12.2 | 0.00 | 0.00 | 0.00 | 26 | 1013.2 |
| 20260507001558 | 77 | 121 | 5.2 | 12.2 | 0.00 | 0.00 | 0.00 | 27 | 1012.9 |
| 20260507000058 | 77 | 137 | 6.1 | 13.0 | 0.00 | 0.00 | 0.00 | 27 | 1013.0 |
| 20260506234603 | 77 | 127 | 6.1 | 10.4 | 0.00 | 0.00 | 0.00 | 28 | 1013.2 |
| 20260506233105 | 77 | 155 | 2.6 | 7.8 | 0.00 | 0.00 | 0.00 | 30 | 1013.3 |
| 20260506231558 | 76 | 111 | 9.6 | 12.2 | 0.00 | 0.00 | 0.00 | 30 | 1013.2 |
| 20260506230058 | 76 | 136 | 6.1 | 12.2 | 0.00 | 0.00 | 0.00 | 31 | 1013.3 |
| 20260506224607 | 76 | 90 | 5.2 | 13.9 | 0.00 | 0.00 | 0.00 | 30 | 1013.2 |
| 20260506223057 | 76 | 112 | 2.6 | 5.2 | 0.00 | 0.00 | 0.00 | 31 | 1013.3 |
| 20260506221558 | 76 | 142 | 6.1 | 10.4 | 0.00 | 0.00 | 0.00 | 31 | 1013.3 |
| 20260506220055 | 75 | 82 | 0.9 | 12.2 | 0.00 | 0.00 | 0.00 | 33 | 1013.6 |
| 20260506214609 | 74 | 34 | 2.6 | 7.8 | 0.00 | 0.00 | 0.00 | 33 | 1013.6 |
| 20260506213053 | 74 | 44 | 1.7 | 8.7 | 0.00 | 0.00 | 0.00 | 34 | 1013.8 |
| 20260506211554 | 73 | 73 | 3.5 | 8.7 | 0.00 | 0.00 | 0.00 | 35 | 1014.2 |
| 20260506210057 | 72 | 121 | 6.1 | 9.6 | 0.00 | 0.00 | 0.00 | 36 | 1014.3 |
| 20260506204624 | 72 | 261 | 3.5 | 7.8 | 0.00 | 0.00 | 0.00 | 36 | 1014.4 |
| 20260506203056 | 71 | 124 | 4.3 | 7.8 | 0.00 | 0.00 | 0.00 | 38 | 1014.7 |
| 20260506201558 | 70 | 109 | 5.2 | 12.2 | 0.00 | 0.00 | 0.00 | 40 | 1014.6 |
| 20260506200058 | 69 | 136 | 6.1 | 11.3 | 0.00 | 0.00 | 0.00 | 42 | 1014.8 |
| 20260506194603 | 69 | 122 | 6.1 | 12.2 | 0.00 | 0.00 | 0.00 | 43 | 1014.9 |
| 20260506193059 | 68 | 89 | 6.1 | 10.4 | 0.00 | 0.00 | 0.00 | 45 | 1015.0 |
| 20260506191554 | 66 | 26 | 6.1 | 9.6 | 0.00 | 0.00 | 0.00 | 46 | 1015.2 |
| 20260506190058 | 64 | 94 | 3.5 | 10.4 | 0.00 | 0.00 | 0.00 | 49 | 1015.4 |
| 20260506184556 | 63 | 115 | 6.1 | 13.0 | 0.00 | 0.00 | 0.00 | 52 | 1015.6 |
| 20260506183059 | 62 | 86 | 7.8 | 12.2 | 0.00 | 0.00 | 0.00 | 54 | 1015.6 |
| 20260506181558 | 61 | 27 | 7.8 | 12.2 | 0.00 | 0.00 | 0.00 | 56 | 1015.8 |
| 20260506174553 | 58 | 54 | 6.1 | 13.0 | 0.00 | 0.00 | 0.00 | 60 | 1016.2 |
| 20260506173054 | 57 | 82 | 8.7 | 13.9 | 0.00 | 0.00 | 0.00 | 61 | 1016.5 |
| 20260506171558 | 57 | 53 | 10.4 | 14.8 | 0.00 | 0.00 | 0.00 | 62 | 1016.4 |
| 20260506170056 | 56 | 92 | 9.6 | 13.9 | 0.00 | 0.00 | 0.00 | 63 | 1016.4 |
| 20260506164558 | 55 | 57 | 9.6 | 13.9 | 0.00 | 0.00 | 0.00 | 64 | 1016.5 |
| 20260506163100 | 55 | 65 | 11.3 | 17.4 | 0.00 | 0.00 | 0.00 | 65 | 1016.3 |
| 20260506161604 | 54 | 55 | 11.3 | 15.6 | 0.00 | 0.00 | 0.00 | 67 | 1016.3 |
| 20260506160055 | 53 | 46 | 13.0 | 17.4 | 0.00 | 0.00 | 0.00 | 66 | 1016.2 |
| 20260506154610 | 53 | 60 | 10.4 | 18.2 | 0.00 | 0.00 | 0.00 | 67 | 1016.5 |
| 20260506153054 | 53 | 33 | 12.2 | 18.2 | 0.00 | 0.00 | 0.00 | 67 | 1016.1 |
| 20260506151555 | 53 | 68 | 13.0 | 17.4 | 0.00 | 0.00 | 0.00 | 67 | 1015.9 |
| 20260506150054 | 53 | 22 | 13.0 | 17.4 | 0.00 | 0.00 | 0.00 | 66 | 1015.7 |
| 20260506144602 | 53 | 47 | 11.3 | 16.5 | 0.00 | 0.00 | 0.00 | 67 | 1015.8 |
| 20260506143052 | 53 | 51 | 11.3 | 18.2 | 0.00 | 0.00 | 0.00 | 68 | 1015.4 |
| 20260506141555 | 53 | 48 | 13.0 | 18.2 | 0.00 | 0.00 | 0.00 | 69 | 1015.3 |
| 20260506140100 | 53 | 52 | 15.6 | 19.1 | 0.00 | 0.00 | 0.00 | 68 | 1015.3 |
| 20260506134549 | 53 | 40 | 13.9 | 20.9 | 0.00 | 0.00 | 0.00 | 68 | 1015.0 |
| 20260506133102 | 54 | 53 | 14.8 | 19.1 | 0.00 | 0.00 | 0.00 | 68 | 1014.8 |
| 20260506131555 | 54 | 34 | 13.0 | 18.2 | 0.00 | 0.00 | 0.00 | 68 | 1014.0 |
| 20260506130054 | 54 | 61 | 10.4 | 13.9 | 0.00 | 0.00 | 0.00 | 69 | 1013.7 |
| 20260506124556 | 55 | 22 | 9.6 | 13.9 | 0.00 | 0.00 | 0.00 | 68 | 1013.7 |
| 20260506123052 | 56 | 46 | 8.7 | 12.2 | 0.00 | 0.00 | 0.00 | 67 | 1013.0 |
| 20260506121551 | 58 | 15 | 7.8 | 9.6 | 0.00 | 0.00 | 0.00 | 65 | 1012.9 |
| 20260506120052 | 59 | 25 | 5.2 | 9.6 | 0.00 | 0.00 | 0.00 | 63 | 1012.6 |
| 20260506114558 | 60 | 33 | 7.8 | 10.4 | 0.00 | 0.00 | 0.00 | 61 | 1012.6 |